Location: Arleux
(50.3632°N, 2.8721°E)
Time: 14:48:17
(UTC+00:00)

Cosmos 2026 Rocket - Pass Details

Date: 15 December 2019
Orbit: 940 x 1000 km, 82.9° (Epoch: 22 January)

Event Time Altitude Azimuth Distance (km) Brightness Sun altitude
Exits shadow 04:40:41 44° 345° (NNW) 1,315 4.5 -27.5°
Maximum altitude 04:42:49 83° 263° (W) 987 3.8 -27.2°
Drops below altitude 10° 04:49:05 10° 176° (S) 2,733 6.4 -26.2°
Sets 04:51:37 0° 176° (S) 3,685 7.1 -25.8°
